Location: Observatory
(52.1446°N, 0.4624°W)
Time: 15:21:38
(UTC+01:00)

N. Korean satellite - Visible Passes

Search period start: 23 September 2020 00:00
Search period end: 03 October 2020 00:00
Orbit: 455 x 503 km, 97.2° (Epoch: 22 September)

Date Brightness Start Highest point End Pass type
(mag) Time Alt. Az. Time Alt. Az. Time Alt. Az.
23 Sep 9.9 05:38:40 10° NE 05:40:58 16° E 05:43:14 10° SE visible
26 Sep 9.5 05:53:29 10° NE 05:56:24 22° E 05:59:16 10° SE visible
27 Sep 10.1 05:28:35 10° ENE 05:30:07 12° E 05:31:38 10° ESE visible
29 Sep 8.8 06:08:30 10° NNE 06:11:47 31° E 06:15:00 10° SSE visible
30 Sep 9.8 05:43:05 10° NE 05:45:34 17° E 05:47:59 10° SE visible
02 Oct 7.9 06:23:36 10° NNE 06:27:07 45° E 06:30:32 10° S visible
